TimeEST,TemperatureF,Dew PointF,Humidity,Sea Level PressureIn,VisibilityMPH,Wind Direction,Wind SpeedMPH,Gust SpeedMPH,PrecipitationIn,Events,Conditions,WindDirDegrees,DateUTC
12:56 AM,18.0,9.0,68,29.90,10.0,NNE,5.8,-,N/A,,Overcast,20,2014-01-21 05:56:00
1:56 AM,17.1,9.0,71,29.91,10.0,NE,4.6,-,N/A,,Overcast,40,2014-01-21 06:56:00
2:15 AM,17.6,8.6,68,29.85,10.0,ENE,4.6,-,N/A,,Overcast,60,2014-01-21 07:15:00
2:56 AM,17.1,9.0,71,29.91,10.0,ENE,5.8,-,N/A,,Overcast,60,2014-01-21 07:56:00
3:10 AM,17.6,8.6,68,29.85,10.0,ENE,5.8,-,N/A,,Overcast,60,2014-01-21 08:10:00
3:56 AM,16.0,8.1,71,29.89,10.0,ENE,6.9,-,N/A,,Overcast,60,2014-01-21 08:56:00
4:56 AM,15.1,7.0,70,29.87,10.0,NNE,8.1,-,N/A,,Overcast,20,2014-01-21 09:56:00
5:05 AM,15.8,6.8,68,29.80,10.0,NNE,8.1,-,N/A,,Mostly Cloudy,30,2014-01-21 10:05:00
5:56 AM,15.1,7.0,70,29.88,10.0,North,8.1,-,N/A,,Overcast,10,2014-01-21 10:56:00
6:56 AM,12.9,6.1,74,29.90,3.0,NNE,11.5,-,N/A,,Haze,20,2014-01-21 11:56:00
7:07 AM,12.2,6.8,79,29.82,2.0,NNE,10.4,-,N/A,,Haze,20,2014-01-21 12:07:00
7:29 AM,12.2,6.8,79,29.83,3.0,NNE,9.2,-,N/A,,Haze,20,2014-01-21 12:29:00
7:42 AM,12.2,5.0,73,29.83,1.8,North,6.9,-,N/A,,Haze,10,2014-01-21 12:42:00
7:56 AM,12.0,5.0,73,29.93,1.2,North,9.2,-,0.00,Snow,Light Snow,10,2014-01-21 12:56:00
8:05 AM,12.2,5.0,73,29.84,1.2,NNE,9.2,-,0.00,Snow,Light Snow,20,2014-01-21 13:05:00
8:56 AM,12.0,5.0,73,29.94,1.5,NNE,6.9,-,0.00,,Haze,30,2014-01-21 13:56:00
9:56 AM,12.0,6.1,77,29.94,1.5,NNE,12.7,-,0.00,,Haze,20,2014-01-21 14:56:00
10:01 AM,12.2,3.2,67,29.85,2.5,NNE,16.1,-,N/A,,Haze,30,2014-01-21 15:01:00
10:09 AM,12.2,3.2,67,29.85,4.0,NNE,13.8,-,N/A,,Haze,30,2014-01-21 15:09:00
10:56 AM,12.9,1.9,62,29.95,10.0,NNE,12.7,-,N/A,,Mostly Cloudy,20,2014-01-21 15:56:00
11:56 AM,12.9,3.0,65,29.95,9.0,North,8.1,-,N/A,,Overcast,360,2014-01-21 16:56:00
12:28 PM,12.2,3.2,67,29.84,2.5,NNE,9.2,-,0.00,Snow,Light Snow,20,2014-01-21 17:28:00
12:40 PM,12.2,3.2,67,29.84,1.8,North,6.9,-,0.00,Snow,Light Snow,10,2014-01-21 17:40:00
12:56 PM,14.0,3.9,64,29.92,2.0,North,9.2,-,0.00,Snow,Light Snow,10,2014-01-21 17:56:00
1:14 PM,14.0,5.0,67,29.82,1.2,North,10.4,-,0.00,Snow,Light Snow,360,2014-01-21 18:14:00
1:44 PM,12.2,3.2,67,29.82,2.0,North,10.4,-,0.00,,Haze,10,2014-01-21 18:44:00
1:56 PM,12.9,3.0,65,29.91,3.0,North,11.5,-,0.00,,Haze,10,2014-01-21 18:56:00
2:25 PM,12.2,-0.4,57,29.81,10.0,NNE,11.5,-,N/A,,Overcast,20,2014-01-21 19:25:00
2:56 PM,12.9,-0.0,56,29.90,10.0,NE,11.5,-,N/A,,Overcast,40,2014-01-21 19:56:00
3:56 PM,14.0,-2.9,47,29.91,10.0,NNW,10.4,-,N/A,,Clear,340,2014-01-21 20:56:00
4:56 PM,12.0,-4.0,49,29.92,10.0,North,11.5,-,N/A,,Clear,360,2014-01-21 21:56:00
5:56 PM,9.0,-6.0,51,29.95,10.0,North,12.7,-,N/A,,Clear,360,2014-01-21 22:56:00
6:56 PM,7.0,-5.1,58,29.98,10.0,North,8.1,18.4,N/A,,Clear,360,2014-01-21 23:56:00
7:56 PM,5.0,-5.1,63,30.01,10.0,North,11.5,-,N/A,,Clear,10,2014-01-22 00:56:00
8:56 PM,3.0,-6.0,66,30.02,10.0,North,6.9,-,N/A,,Clear,360,2014-01-22 01:56:00
9:28 PM,1.4,-5.8,72,29.91,10.0,NNW,9.2,-,N/A,,Mostly Cloudy,340,2014-01-22 02:28:00
9:56 PM,1.9,-6.0,69,30.03,10.0,NNW,8.1,-,N/A,,Mostly Cloudy,340,2014-01-22 02:56:00
10:56 PM,-0.0,-8.0,69,30.03,10.0,North,9.2,-,N/A,,Scattered Clouds,350,2014-01-22 03:56:00
11:56 PM,-0.9,-9.9,66,30.03,10.0,North,9.2,-,N/A,,Clear,350,2014-01-22 04:56:00